Data supplied by UK-AIR on 8/11/2015
All Data GMT hour ending 
Status: R =Ratified P=Provisional,P*=As supplied
,,Charlton Mackrell,,,,,,,,,,,,,,,,,,,,,,,
Date,time,"Nitric oxide",status,unit,"Nitrogen dioxide",status,unit,"Nitrogen oxides as nitrogen dioxide",status,unit,"Ozone",status,unit
 
01-01-2014,01:00,0.39955,R,ugm-3,0.86828,R,ugm-3,1.48091,R,ugm-3,75.23789,R,ugm-3
01-01-2014,02:00,0.56596,R,ugm-3,1.75807,R,ugm-3,2.62586,R,ugm-3,72.11129,R,ugm-3
01-01-2014,03:00,0.63269,R,ugm-3,2.26153,R,ugm-3,3.23165,R,ugm-3,76.33553,R,ugm-3
01-01-2014,04:00,0.56627,R,ugm-3,2.05976,R,ugm-3,2.92804,R,ugm-3,77.48305,R,ugm-3
01-01-2014,05:00,0.79921,R,ugm-3,1.95553,R,ugm-3,3.18097,R,ugm-3,72.49380,R,ugm-3
01-01-2014,06:00,0.66606,R,ugm-3,1.65479,R,ugm-3,2.67607,R,ugm-3,70.64778,R,ugm-3
01-01-2014,07:00,0.59933,R,ugm-3,1.85799,R,ugm-3,2.77695,R,ugm-3,72.59359,R,ugm-3
01-01-2014,08:00,0.46618,R,ugm-3,1.35548,R,ugm-3,2.07028,R,ugm-3,77.13381,R,ugm-3
01-01-2014,09:00,0.79952,R,ugm-3,1.39995,R,ugm-3,2.62586,R,ugm-3,83.71962,R,ugm-3
01-01-2014,10:00,0.79921,R,ugm-3,1.95553,R,ugm-3,3.18097,R,ugm-3,82.12306,R,ugm-3
01-01-2014,11:00,0.73248,R,ugm-3,2.10805,R,ugm-3,3.23117,R,ugm-3,77.93209,R,ugm-3
01-01-2014,12:00,0.86594,R,ugm-3,2.30791,R,ugm-3,3.63566,R,ugm-3,76.63488,R,ugm-3
01-01-2014,13:00,1.06551,R,ugm-3,2.60722,R,ugm-3,4.24097,R,ugm-3,73.79101,R,ugm-3
01-01-2014,14:00,0.76615,R,ugm-3,2.35955,R,ugm-3,3.53430,R,ugm-3,73.49165,R,ugm-3
01-01-2014,15:00,1.03245,R,ugm-3,2.45613,R,ugm-3,4.03920,R,ugm-3,74.33983,R,ugm-3
01-01-2014,16:00,0.69942,R,ugm-3,2.41118,R,ugm-3,3.48362,R,ugm-3,74.73897,R,ugm-3
01-01-2014,17:00,0.69942,R,ugm-3,2.41166,R,ugm-3,3.48410,R,ugm-3,73.99058,R,ugm-3
01-01-2014,18:00,0.93267,R,ugm-3,2.71001,R,ugm-3,4.14008,R,ugm-3,72.94284,R,ugm-3
01-01-2014,19:00,1.09887,R,ugm-3,2.65742,R,ugm-3,4.34233,R,ugm-3,72.89294,R,ugm-3
01-01-2014,20:00,0.96603,R,ugm-3,2.20416,R,ugm-3,3.68539,R,ugm-3,72.69337,R,ugm-3
01-01-2014,21:00,0.66606,R,ugm-3,1.95792,R,ugm-3,2.97920,R,ugm-3,75.28778,R,ugm-3
01-01-2014,22:00,0.73279,R,ugm-3,1.75472,R,ugm-3,2.87831,R,ugm-3,75.28778,R,ugm-3
01-01-2014,23:00,0.63301,R,ugm-3,1.20057,R,ugm-3,2.17117,R,ugm-3,74.88864,R,ugm-3
01-01-2014,24:00,0.69942,R,ugm-3,0.54315,R,ugm-3,1.61558,R,ugm-3,78.58069,R,ugm-3
02-01-2014,01:00,0.48936,R,ugm-3,0.79943,R,ugm-3,1.54976,R,ugm-3,77.03402,R,ugm-3
02-01-2014,02:00,0.59995,R,ugm-3,2.81998,R,ugm-3,3.73989,R,ugm-3,66.85595,R,ugm-3
02-01-2014,03:00,0.59995,R,ugm-3,3.37556,R,ugm-3,4.29548,R,ugm-3,63.81251,R,ugm-3
02-01-2014,04:00,0.69974,R,ugm-3,2.41453,R,ugm-3,3.48744,R,ugm-3,65.10971,R,ugm-3
02-01-2014,05:00,0.56659,R,ugm-3,1.65814,R,ugm-3,2.52689,R,ugm-3,69.45036,R,ugm-3
02-01-2014,06:00,0.43344,R,ugm-3,1.50848,R,ugm-3,2.17308,R,ugm-3,65.40907,R,ugm-3
02-01-2014,07:00,0.76647,R,ugm-3,1.85704,R,ugm-3,3.03227,R,ugm-3,66.65638,R,ugm-3
02-01-2014,08:00,0.63301,R,ugm-3,2.16304,R,ugm-3,3.13363,R,ugm-3,73.34198,R,ugm-3
02-01-2014,09:00,1.86627,R,ugm-3,5.22447,R,ugm-3,8.08605,R,ugm-3,70.34843,R,ugm-3
02-01-2014,10:00,3.29973,R,ugm-3,5.75519,R,ugm-3,10.81471,R,ugm-3,66.60649,R,ugm-3
02-01-2014,11:00,1.76680,R,ugm-3,3.81018,R,ugm-3,6.51923,R,ugm-3,66.95574,R,ugm-3
02-01-2014,12:00,1.19990,R,ugm-3,4.02247,R,ugm-3,5.86229,R,ugm-3,64.36133,R,ugm-3
02-01-2014,13:00,1.70007,R,ugm-3,4.36767,R,ugm-3,6.97441,R,ugm-3,65.60864,R,ugm-3
02-01-2014,14:00,1.59966,R,ugm-3,2.80325,R,ugm-3,5.25603,R,ugm-3,68.30283,R,ugm-3
02-01-2014,15:00,1.26663,R,ugm-3,2.96007,R,ugm-3,4.90222,R,ugm-3,67.55445,R,ugm-3
02-01-2014,16:00,2.09983,R,ugm-3,5.01744,R,ugm-3,8.23714,R,ugm-3,63.91229,R,ugm-3
02-01-2014,17:00,0.99971,R,ugm-3,5.44154,R,ugm-3,6.97441,R,ugm-3,61.56735,R,ugm-3
02-01-2014,18:00,0.73341,R,ugm-3,4.13148,R,ugm-3,5.25603,R,ugm-3,65.05982,R,ugm-3
02-01-2014,19:00,0.93298,R,ugm-3,4.22949,R,ugm-3,5.66004,R,ugm-3,68.95144,R,ugm-3
02-01-2014,20:00,0.76647,R,ugm-3,2.96868,R,ugm-3,4.14391,R,ugm-3,70.14886,R,ugm-3
02-01-2014,21:00,0.76615,R,ugm-3,2.05976,R,ugm-3,3.23452,R,ugm-3,71.89509,R,ugm-3
02-01-2014,22:00,0.69974,R,ugm-3,1.75759,R,ugm-3,2.83050,R,ugm-3,72.54370,R,ugm-3
02-01-2014,23:00,0.93298,R,ugm-3,1.45015,R,ugm-3,2.88070,R,ugm-3,75.03832,R,ugm-3
02-01-2014,24:00,0.89962,R,ugm-3,1.35023,R,ugm-3,2.72962,R,ugm-3,74.38972,R,ugm-3
03-01-2014,01:00,0.79952,R,ugm-3,0.93075,R,ugm-3,2.15666,R,ugm-3,70.24864,R,ugm-3
03-01-2014,02:00,0.86687,R,ugm-3,3.21969,R,ugm-3,4.54888,R,ugm-3,73.70785,R,ugm-3
03-01-2014,03:00,0.53353,R,ugm-3,3.32584,R,ugm-3,4.14391,R,ugm-3,72.84305,R,ugm-3
03-01-2014,04:00,0.76678,R,ugm-3,2.31126,R,ugm-3,3.48697,R,ugm-3,75.98628,R,ugm-3
03-01-2014,05:00,0.50017,R,ugm-3,1.70978,R,ugm-3,2.47669,R,ugm-3,82.17295,R,ugm-3
03-01-2014,06:00,1.09981,R,ugm-3,2.30600,R,ugm-3,3.99234,R,ugm-3,82.82155,R,ugm-3
03-01-2014,07:00,0.66637,R,ugm-3,1.85895,R,ugm-3,2.88070,R,ugm-3,85.41596,R,ugm-3
03-01-2014,08:00,1.26663,R,ugm-3,2.90939,R,ugm-3,4.85153,R,ugm-3,83.17080,R,ugm-3
03-01-2014,09:00,1.26663,R,ugm-3,3.06096,R,ugm-3,5.00310,R,ugm-3,84.21854,R,ugm-3
03-01-2014,10:00,0.89993,R,ugm-3,2.51159,R,ugm-3,3.89146,R,ugm-3,83.76951,R,ugm-3
03-01-2014,11:00,0.69974,R,ugm-3,1.60602,R,ugm-3,2.67893,R,ugm-3,90.60478,R,ugm-3
03-01-2014,12:00,1.16654,R,ugm-3,2.20368,R,ugm-3,3.99234,R,ugm-3,89.15790,R,ugm-3
03-01-2014,13:00,1.00002,R,ugm-3,2.35859,R,ugm-3,3.89194,R,ugm-3,87.51145,R,ugm-3
03-01-2014,14:00,1.06644,R,ugm-3,1.65001,R,ugm-3,3.28520,R,ugm-3,88.95833,R,ugm-3
03-01-2014,15:00,1.19959,R,ugm-3,1.95075,R,ugm-3,3.79010,R,ugm-3,87.71102,R,ugm-3
03-01-2014,16:00,2.20024,R,ugm-3,3.85321,R,ugm-3,7.22686,R,ugm-3,88.55919,R,ugm-3
03-01-2014,17:00,1.66671,R,ugm-3,2.75113,R,ugm-3,5.30671,R,ugm-3,86.41381,R,ugm-3
03-01-2014,18:00,0.73310,R,ugm-3,1.40330,R,ugm-3,2.52737,R,ugm-3,87.06241,R,ugm-3
03-01-2014,19:00,1.20021,R,ugm-3,2.30361,R,ugm-3,4.14391,R,ugm-3,90.80435,R,ugm-3
03-01-2014,20:00,0.79983,R,ugm-3,1.14893,R,ugm-3,2.37533,R,ugm-3,95.44435,R,ugm-3
03-01-2014,21:00,2.00005,R,ugm-3,3.20009,R,ugm-3,6.26678,R,ugm-3,87.21209,R,ugm-3
03-01-2014,22:00,0.83320,R,ugm-3,0.64308,R,ugm-3,1.92063,R,ugm-3,81.97338,R,ugm-3
03-01-2014,23:00,0.59995,R,ugm-3,0.34329,R,ugm-3,1.26321,R,ugm-3,82.02327,R,ugm-3
03-01-2014,24:00,0.83289,R,ugm-3,0.59288,R,ugm-3,1.86995,R,ugm-3,79.97768,R,ugm-3
04-01-2014,01:00,0.80077,R,ugm-3,0.52403,R,ugm-3,1.75185,R,ugm-3,79.62843,R,ugm-3
04-01-2014,02:00,1.13442,R,ugm-3,2.75830,R,ugm-3,4.49772,R,ugm-3,76.36879,R,ugm-3
04-01-2014,03:00,0.86750,R,ugm-3,2.86445,R,ugm-3,4.19459,R,ugm-3,75.33768,R,ugm-3
04-01-2014,04:00,0.80077,R,ugm-3,2.10805,R,ugm-3,3.33588,R,ugm-3,78.92994,R,ugm-3
04-01-2014,05:00,0.56721,R,ugm-3,2.16304,R,ugm-3,3.03275,R,ugm-3,75.68692,R,ugm-3
04-01-2014,06:00,0.66731,R,ugm-3,2.56514,R,ugm-3,3.58833,R,ugm-3,69.10111,R,ugm-3
04-01-2014,07:00,0.76740,R,ugm-3,2.10853,R,ugm-3,3.28520,R,ugm-3,73.44176,R,ugm-3
04-01-2014,08:00,1.76836,R,ugm-3,6.73917,R,ugm-3,9.45062,R,ugm-3,73.09251,R,ugm-3
04-01-2014,09:00,0.76740,R,ugm-3,4.28161,R,ugm-3,5.45828,R,ugm-3,71.24649,R,ugm-3
04-01-2014,10:00,0.86750,R,ugm-3,7.31197,R,ugm-3,8.64211,R,ugm-3,60.81896,R,ugm-3
04-01-2014,11:00,0.83413,R,ugm-3,5.69495,R,ugm-3,6.97393,R,ugm-3,59.47186,R,ugm-3
04-01-2014,12:00,1.80173,R,ugm-3,14.42073,R,ugm-3,17.18333,R,ugm-3,55.68003,R,ugm-3
04-01-2014,13:00,1.13442,R,ugm-3,12.00668,R,ugm-3,13.74609,R,ugm-3,59.92089,R,ugm-3
04-01-2014,14:00,2.93614,R,ugm-3,16.47093,R,ugm-3,20.97295,R,ugm-3,50.74067,R,ugm-3
04-01-2014,15:00,2.13538,R,ugm-3,14.16111,R,ugm-3,17.43531,R,ugm-3,45.15271,R,ugm-3
04-01-2014,16:00,1.43471,R,ugm-3,16.19553,R,ugm-3,18.39538,R,ugm-3,43.45637,R,ugm-3
04-01-2014,17:00,0.50048,R,ugm-3,8.32989,R,ugm-3,9.09728,R,ugm-3,51.58885,R,ugm-3
04-01-2014,18:00,1.33461,R,ugm-3,3.56299,R,ugm-3,5.60936,R,ugm-3,72.29423,R,ugm-3
04-01-2014,19:00,0.96759,R,ugm-3,3.51948,R,ugm-3,5.00310,R,ugm-3,71.14671,R,ugm-3
04-01-2014,20:00,0.56721,R,ugm-3,4.48720,R,ugm-3,5.35691,R,ugm-3,69.50025,R,ugm-3
04-01-2014,21:00,1.73499,R,ugm-3,9.26654,R,ugm-3,11.92683,R,ugm-3,64.91014,R,ugm-3
04-01-2014,22:00,0.83413,R,ugm-3,5.29093,R,ugm-3,6.56992,R,ugm-3,65.75832,R,ugm-3
04-01-2014,23:00,0.80077,R,ugm-3,5.24121,R,ugm-3,6.46903,R,ugm-3,65.15961,R,ugm-3
04-01-2014,24:00,0.43375,R,ugm-3,4.89409,R,ugm-3,5.55916,R,ugm-3,66.50670,R,ugm-3
05-01-2014,01:00,0.97996,R,ugm-3,5.17523,R,ugm-3,6.67781,R,ugm-3,62.53193,R,ugm-3
05-01-2014,02:00,0.76865,R,ugm-3,4.58809,R,ugm-3,5.76667,R,ugm-3,61.86670,R,ugm-3
05-01-2014,03:00,0.60120,R,ugm-3,4.94573,R,ugm-3,5.86755,R,ugm-3,55.28089,R,ugm-3
05-01-2014,04:00,0.53447,R,ugm-3,2.26631,R,ugm-3,3.08582,R,ugm-3,64.86025,R,ugm-3
05-01-2014,05:00,0.56783,R,ugm-3,1.50705,R,ugm-3,2.37772,R,ugm-3,66.75617,R,ugm-3
05-01-2014,06:00,0.43406,R,ugm-3,2.36959,R,ugm-3,3.03514,R,ugm-3,60.86885,R,ugm-3
05-01-2014,07:00,0.90211,R,ugm-3,3.06861,R,ugm-3,4.45182,R,ugm-3,60.02068,R,ugm-3
05-01-2014,08:00,0.80201,R,ugm-3,6.00429,R,ugm-3,7.23403,R,ugm-3,56.62799,R,ugm-3
05-01-2014,09:00,0.96884,R,ugm-3,3.92684,R,ugm-3,5.41238,R,ugm-3,62.21595,R,ugm-3
05-01-2014,10:00,1.30249,R,ugm-3,4.32608,R,ugm-3,6.32320,R,ugm-3,67.80391,R,ugm-3
05-01-2014,11:00,1.00221,R,ugm-3,4.48290,R,ugm-3,6.01959,R,ugm-3,69.79961,R,ugm-3
05-01-2014,12:00,0.90211,R,ugm-3,5.04135,R,ugm-3,6.42457,R,ugm-3,70.24864,R,ugm-3
05-01-2014,13:00,0.96884,R,ugm-3,4.23045,R,ugm-3,5.71598,R,ugm-3,71.64563,R,ugm-3
05-01-2014,14:00,0.93516,R,ugm-3,2.86588,R,ugm-3,4.29978,R,ugm-3,77.38327,R,ugm-3
05-01-2014,15:00,0.83507,R,ugm-3,3.98039,R,ugm-3,5.26081,R,ugm-3,78.23144,R,ugm-3
05-01-2014,16:00,0.80170,R,ugm-3,4.63829,R,ugm-3,5.86755,R,ugm-3,73.54155,R,ugm-3
05-01-2014,17:00,0.83538,R,ugm-3,4.94094,R,ugm-3,6.22184,R,ugm-3,67.95359,R,ugm-3
05-01-2014,18:00,1.00189,R,ugm-3,2.96581,R,ugm-3,4.50203,R,ugm-3,68.95144,R,ugm-3
05-01-2014,19:00,1.06894,R,ugm-3,3.26751,R,ugm-3,4.90652,R,ugm-3,68.15316,R,ugm-3
05-01-2014,20:00,0.83507,R,ugm-3,3.01888,R,ugm-3,4.29930,R,ugm-3,69.05122,R,ugm-3
05-01-2014,21:00,0.63456,R,ugm-3,2.66889,R,ugm-3,3.64188,R,ugm-3,68.70197,R,ugm-3
05-01-2014,22:00,0.73497,R,ugm-3,2.66698,R,ugm-3,3.79392,R,ugm-3,69.05122,R,ugm-3
05-01-2014,23:00,0.63456,R,ugm-3,1.96127,R,ugm-3,2.93425,R,ugm-3,71.39617,R,ugm-3
05-01-2014,24:00,0.83507,R,ugm-3,1.29954,R,ugm-3,2.57996,R,ugm-3,71.39617,R,ugm-3
06-01-2014,01:00,0.75753,R,ugm-3,0.99705,R,ugm-3,2.15858,R,ugm-3,71.91172,R,ugm-3
06-01-2014,02:00,0.76834,R,ugm-3,2.56514,R,ugm-3,3.74324,R,ugm-3,80.42671,R,ugm-3
06-01-2014,03:00,0.50048,R,ugm-3,3.17810,R,ugm-3,3.94549,R,ugm-3,79.12951,R,ugm-3
06-01-2014,04:00,0.66824,R,ugm-3,2.51637,R,ugm-3,3.54099,R,ugm-3,83.17080,R,ugm-3
06-01-2014,05:00,1.50300,R,ugm-3,2.95625,R,ugm-3,5.26081,R,ugm-3,89.35747,R,ugm-3
06-01-2014,06:00,0.83538,R,ugm-3,2.05785,R,ugm-3,3.33875,R,ugm-3,82.12306,R,ugm-3
06-01-2014,07:00,1.26913,R,ugm-3,2.60674,R,ugm-3,4.55271,R,ugm-3,83.12091,R,ugm-3
06-01-2014,08:00,1.20240,R,ugm-3,2.70906,R,ugm-3,4.55271,R,ugm-3,83.96908,R,ugm-3
06-01-2014,09:00,1.53605,R,ugm-3,3.36074,R,ugm-3,5.71598,R,ugm-3,80.02757,R,ugm-3
06-01-2014,10:00,1.23576,R,ugm-3,2.30408,R,ugm-3,4.19889,R,ugm-3,82.32263,R,ugm-3
06-01-2014,11:00,0.86843,R,ugm-3,1.95697,R,ugm-3,3.28854,R,ugm-3,83.47015,R,ugm-3
06-01-2014,12:00,1.03557,R,ugm-3,2.00334,R,ugm-3,3.59120,R,ugm-3,80.07746,R,ugm-3
06-01-2014,13:00,1.23576,R,ugm-3,2.30313,R,ugm-3,4.19794,R,ugm-3,81.52435,R,ugm-3
06-01-2014,14:00,0.93548,R,ugm-3,1.60124,R,ugm-3,3.03562,R,ugm-3,80.02757,R,ugm-3
06-01-2014,15:00,0.96822,R,ugm-3,1.90485,R,ugm-3,3.38943,R,ugm-3,77.68262,R,ugm-3
06-01-2014,16:00,0.86874,R,ugm-3,1.80397,R,ugm-3,3.13602,R,ugm-3,75.18800,R,ugm-3
06-01-2014,17:00,0.96853,R,ugm-3,1.75233,R,ugm-3,3.23738,R,ugm-3,73.34198,R,ugm-3
06-01-2014,18:00,1.87064,R,ugm-3,2.69615,R,ugm-3,5.56442,R,ugm-3,73.04262,R,ugm-3
06-01-2014,19:00,1.16903,R,ugm-3,1.49558,R,ugm-3,3.28807,R,ugm-3,73.04262,R,ugm-3
06-01-2014,20:00,1.16903,R,ugm-3,1.49558,R,ugm-3,3.28807,R,ugm-3,72.34413,R,ugm-3
06-01-2014,21:00,1.10230,R,ugm-3,0.93999,R,ugm-3,2.63017,R,ugm-3,73.04262,R,ugm-3
06-01-2014,22:00,1.36954,R,ugm-3,1.39039,R,ugm-3,3.49031,R,ugm-3,77.78241,R,ugm-3
06-01-2014,23:00,0.76834,R,ugm-3,0.54124,R,ugm-3,1.71934,R,ugm-3,76.38542,R,ugm-3
06-01-2014,24:00,0.50079,R,ugm-3,0.34521,R,ugm-3,1.11308,R,ugm-3,76.88434,R,ugm-3
07-01-2014,01:00,0.75753,R,ugm-3,0.45773,R,ugm-3,1.61925,R,ugm-3,75.30441,R,ugm-3
07-01-2014,02:00,0.83538,R,ugm-3,1.34975,R,ugm-3,2.63064,R,ugm-3,75.17137,R,ugm-3
07-01-2014,03:00,0.66855,R,ugm-3,2.26297,R,ugm-3,3.28807,R,ugm-3,73.69122,R,ugm-3
07-01-2014,04:00,0.86906,R,ugm-3,1.90533,R,ugm-3,3.23786,R,ugm-3,72.29423,R,ugm-3
07-01-2014,05:00,0.80233,R,ugm-3,1.80492,R,ugm-3,3.03514,R,ugm-3,71.79531,R,ugm-3
07-01-2014,06:00,0.80201,R,ugm-3,1.55247,R,ugm-3,2.78221,R,ugm-3,72.19445,R,ugm-3
07-01-2014,07:00,1.17028,R,ugm-3,2.45517,R,ugm-3,4.24958,R,ugm-3,72.39402,R,ugm-3
07-01-2014,08:00,1.03619,R,ugm-3,3.06526,R,ugm-3,4.65407,R,ugm-3,72.99273,R,ugm-3
07-01-2014,09:00,1.73842,R,ugm-3,3.35453,R,ugm-3,6.02007,R,ugm-3,74.88864,R,ugm-3
07-01-2014,10:00,2.17280,R,ugm-3,4.45899,R,ugm-3,7.79057,R,ugm-3,73.14241,R,ugm-3
07-01-2014,11:00,2.03902,R,ugm-3,4.41070,R,ugm-3,7.53716,R,ugm-3,70.14886,R,ugm-3
07-01-2014,12:00,2.00597,R,ugm-3,2.79225,R,ugm-3,5.86803,R,ugm-3,71.99488,R,ugm-3
07-01-2014,13:00,2.10607,R,ugm-3,2.99306,R,ugm-3,6.22232,R,ugm-3,71.54585,R,ugm-3
07-01-2014,14:00,0.93610,R,ugm-3,2.15634,R,ugm-3,3.59168,R,ugm-3,70.49810,R,ugm-3
07-01-2014,15:00,1.50424,R,ugm-3,2.85297,R,ugm-3,5.15945,R,ugm-3,71.04692,R,ugm-3
07-01-2014,16:00,1.40384,R,ugm-3,3.56394,R,ugm-3,5.71646,R,ugm-3,70.54800,R,ugm-3
07-01-2014,17:00,1.63802,R,ugm-3,4.72196,R,ugm-3,7.23355,R,ugm-3,69.74972,R,ugm-3
07-01-2014,18:00,0.93579,R,ugm-3,3.52283,R,ugm-3,4.95768,R,ugm-3,68.35273,R,ugm-3
07-01-2014,19:00,2.50676,R,ugm-3,6.37484,R,ugm-3,10.21849,R,ugm-3,64.91014,R,ugm-3
07-01-2014,20:00,1.06987,R,ugm-3,3.26607,R,ugm-3,4.90652,R,ugm-3,67.85380,R,ugm-3
07-01-2014,21:00,1.53730,R,ugm-3,3.91584,R,ugm-3,6.27300,R,ugm-3,64.51100,R,ugm-3
07-01-2014,22:00,1.03619,R,ugm-3,2.55940,R,ugm-3,4.14821,R,ugm-3,62.71487,R,ugm-3
07-01-2014,23:00,0.80233,R,ugm-3,2.36146,R,ugm-3,3.59168,R,ugm-3,59.92089,R,ugm-3
07-01-2014,24:00,0.63519,R,ugm-3,1.75711,R,ugm-3,2.73105,R,ugm-3,60.41982,R,ugm-3
08-01-2014,01:00,0.89182,R,ugm-3,1.13093,R,ugm-3,2.49836,R,ugm-3,62.99760,R,ugm-3
08-01-2014,02:00,0.83632,R,ugm-3,2.46426,R,ugm-3,3.74659,R,ugm-3,60.00405,R,ugm-3
08-01-2014,03:00,0.76927,R,ugm-3,2.61773,R,ugm-3,3.79727,R,ugm-3,57.17681,R,ugm-3
08-01-2014,04:00,0.60182,R,ugm-3,2.21611,R,ugm-3,3.13889,R,ugm-3,63.06412,R,ugm-3
08-01-2014,05:00,0.53540,R,ugm-3,2.21659,R,ugm-3,3.03753,R,ugm-3,62.41552,R,ugm-3
08-01-2014,06:00,0.60245,R,ugm-3,2.16495,R,ugm-3,3.08869,R,ugm-3,63.66283,R,ugm-3
08-01-2014,07:00,2.47558,R,ugm-3,4.50728,R,ugm-3,8.30312,R,ugm-3,62.71487,R,ugm-3
08-01-2014,08:00,1.47213,R,ugm-3,4.78125,R,ugm-3,7.03848,R,ugm-3,62.56520,R,ugm-3
08-01-2014,09:00,1.50580,R,ugm-3,8.07075,R,ugm-3,10.37962,R,ugm-3,58.67358,R,ugm-3
08-01-2014,10:00,1.63958,R,ugm-3,9.23307,R,ugm-3,11.74705,R,ugm-3,54.38283,R,ugm-3
08-01-2014,11:00,5.15260,R,ugm-3,12.90985,R,ugm-3,20.81039,R,ugm-3,53.88390,R,ugm-3
08-01-2014,12:00,1.90712,R,ugm-3,7.10159,R,ugm-3,10.02580,R,ugm-3,58.17466,R,ugm-3
08-01-2014,13:00,1.10417,R,ugm-3,5.95266,R,ugm-3,7.64570,R,ugm-3,60.86885,R,ugm-3
08-01-2014,14:00,1.33835,R,ugm-3,6.85966,R,ugm-3,8.91177,R,ugm-3,60.12046,R,ugm-3
08-01-2014,15:00,1.07081,R,ugm-3,9.44679,R,ugm-3,11.08868,R,ugm-3,56.02928,R,ugm-3
08-01-2014,16:00,1.03682,R,ugm-3,10.36001,R,ugm-3,11.94978,R,ugm-3,51.83831,R,ugm-3
08-01-2014,17:00,1.10386,R,ugm-3,9.70068,R,ugm-3,11.39324,R,ugm-3,53.33508,R,ugm-3
08-01-2014,18:00,1.87376,R,ugm-3,11.55724,R,ugm-3,14.43029,R,ugm-3,51.04003,R,ugm-3
08-01-2014,19:00,1.00345,R,ugm-3,8.48720,R,ugm-3,10.02580,R,ugm-3,48.99444,R,ugm-3
08-01-2014,20:00,1.33804,R,ugm-3,7.72076,R,ugm-3,9.77240,R,ugm-3,47.84691,R,ugm-3
08-01-2014,21:00,1.33835,R,ugm-3,4.78316,R,ugm-3,6.83528,R,ugm-3,52.93594,R,ugm-3
08-01-2014,22:00,0.66918,R,ugm-3,3.88572,R,ugm-3,4.91178,R,ugm-3,55.53035,R,ugm-3
08-01-2014,23:00,0.80295,R,ugm-3,2.97155,R,ugm-3,4.20272,R,ugm-3,59.57165,R,ugm-3
08-01-2014,24:00,0.53509,R,ugm-3,2.47047,R,ugm-3,3.29093,R,ugm-3,70.59789,R,ugm-3
09-01-2014,01:00,0.66980,R,ugm-3,1.94374,R,ugm-3,2.97075,R,ugm-3,74.57266,R,ugm-3
09-01-2014,02:00,0.73684,R,ugm-3,3.37700,R,ugm-3,4.50681,R,ugm-3,78.36449,R,ugm-3
09-01-2014,03:00,0.77052,R,ugm-3,3.32536,R,ugm-3,4.50681,R,ugm-3,78.18155,R,ugm-3
09-01-2014,04:00,0.53634,R,ugm-3,3.32966,R,ugm-3,4.15204,R,ugm-3,76.03617,R,ugm-3
09-01-2014,05:00,0.87062,R,ugm-3,2.05689,R,ugm-3,3.39182,R,ugm-3,76.33553,R,ugm-3
09-01-2014,06:00,1.44001,R,ugm-3,2.45039,R,ugm-3,4.65837,R,ugm-3,76.63488,R,ugm-3
09-01-2014,07:00,1.00470,R,ugm-3,2.91513,R,ugm-3,4.45565,R,ugm-3,76.08606,R,ugm-3
09-01-2014,08:00,0.70317,R,ugm-3,3.47884,R,ugm-3,4.55701,R,ugm-3,68.45251,R,ugm-3
09-01-2014,09:00,0.73715,R,ugm-3,4.54028,R,ugm-3,5.67056,R,ugm-3,66.85595,R,ugm-3
09-01-2014,10:00,0.90429,R,ugm-3,5.04374,R,ugm-3,6.43030,R,ugm-3,70.09896,R,ugm-3
09-01-2014,11:00,1.77522,R,ugm-3,5.32870,R,ugm-3,8.05067,R,ugm-3,68.95144,R,ugm-3
09-01-2014,12:00,1.17215,R,ugm-3,4.43078,R,ugm-3,6.22806,R,ugm-3,63.11401,R,ugm-3
09-01-2014,13:00,1.27287,R,ugm-3,2.90939,R,ugm-3,4.86110,R,ugm-3,68.15316,R,ugm-3
09-01-2014,14:00,1.33991,R,ugm-3,2.04638,R,ugm-3,4.10088,R,ugm-3,69.35058,R,ugm-3
09-01-2014,15:00,1.00470,R,ugm-3,2.25675,R,ugm-3,3.79727,R,ugm-3,70.79746,R,ugm-3
09-01-2014,16:00,3.44941,R,ugm-3,8.88834,R,ugm-3,14.17736,R,ugm-3,62.16606,R,ugm-3
09-01-2014,17:00,2.61216,R,ugm-3,11.58975,R,ugm-3,15.59500,R,ugm-3,55.43057,R,ugm-3
09-01-2014,18:00,3.24891,R,ugm-3,10.15729,R,ugm-3,15.13887,R,ugm-3,53.93379,R,ugm-3
09-01-2014,19:00,1.20583,R,ugm-3,5.74611,R,ugm-3,7.59502,R,ugm-3,57.12691,R,ugm-3
09-01-2014,20:00,2.07613,R,ugm-3,6.94333,R,ugm-3,10.12669,R,ugm-3,58.97294,R,ugm-3
09-01-2014,21:00,1.94236,R,ugm-3,8.05975,R,ugm-3,11.03799,R,ugm-3,55.92949,R,ugm-3
09-01-2014,22:00,0.93735,R,ugm-3,6.61343,R,ugm-3,8.05067,R,ugm-3,55.38068,R,ugm-3
09-01-2014,23:00,1.17184,R,ugm-3,6.20367,R,ugm-3,8.00047,R,ugm-3,53.78412,R,ugm-3
09-01-2014,24:00,1.54042,R,ugm-3,6.65072,R,ugm-3,9.01266,R,ugm-3,54.43272,R,ugm-3
10-01-2014,01:00,0.75919,R,ugm-3,4.57406,R,ugm-3,5.73814,R,ugm-3,50.89035,R,ugm-3
10-01-2014,02:00,0.80389,R,ugm-3,3.47693,R,ugm-3,4.70953,R,ugm-3,56.34526,R,ugm-3
10-01-2014,03:00,0.63644,R,ugm-3,3.27755,R,ugm-3,4.25340,R,ugm-3,59.82111,R,ugm-3
10-01-2014,04:00,0.56939,R,ugm-3,3.38034,R,ugm-3,4.25340,R,ugm-3,58.52390,R,ugm-3
10-01-2014,05:00,0.63675,R,ugm-3,3.22591,R,ugm-3,4.20224,R,ugm-3,61.41767,R,ugm-3
10-01-2014,06:00,0.60276,R,ugm-3,4.84771,R,ugm-3,5.77193,R,ugm-3,52.08777,R,ugm-3
10-01-2014,07:00,0.73684,R,ugm-3,11.83264,R,ugm-3,12.96245,R,ugm-3,45.80132,R,ugm-3
10-01-2014,08:00,0.93766,R,ugm-3,13.34734,R,ugm-3,14.78506,R,ugm-3,48.09637,R,ugm-3
10-01-2014,09:00,4.35370,R,ugm-3,17.78051,R,ugm-3,24.45609,R,ugm-3,47.49766,R,ugm-3
10-01-2014,10:00,4.62156,R,ugm-3,16.10325,R,ugm-3,23.18954,R,ugm-3,59.97079,R,ugm-3
10-01-2014,11:00,5.12422,R,ugm-3,18.52304,R,ugm-3,26.38007,R,ugm-3,50.44132,R,ugm-3
10-01-2014,12:00,1.27225,R,ugm-3,5.49174,R,ugm-3,7.44249,R,ugm-3,61.51745,R,ugm-3
10-01-2014,13:00,2.37798,R,ugm-3,6.17690,R,ugm-3,9.82308,R,ugm-3,64.16176,R,ugm-3
10-01-2014,14:00,1.54073,R,ugm-3,4.62443,R,ugm-3,6.98684,R,ugm-3,68.90154,R,ugm-3
10-01-2014,15:00,1.44001,R,ugm-3,5.99473,R,ugm-3,8.20271,R,ugm-3,67.30498,R,ugm-3
10-01-2014,16:00,2.61216,R,ugm-3,9.31148,R,ugm-3,13.31674,R,ugm-3,62.16606,R,ugm-3
10-01-2014,17:00,1.47369,R,ugm-3,7.20917,R,ugm-3,9.46879,R,ugm-3,62.16606,R,ugm-3
10-01-2014,18:00,1.94236,R,ugm-3,6.94572,R,ugm-3,9.92396,R,ugm-3,61.91659,R,ugm-3
10-01-2014,19:00,1.70787,R,ugm-3,7.35643,R,ugm-3,9.97512,R,ugm-3,62.01638,R,ugm-3
10-01-2014,20:00,1.33960,R,ugm-3,5.28806,R,ugm-3,7.34209,R,ugm-3,63.46326,R,ugm-3
10-01-2014,21:00,1.13879,R,ugm-3,5.03896,R,ugm-3,6.78507,R,ugm-3,62.71487,R,ugm-3
10-01-2014,22:00,0.70317,R,ugm-3,4.08653,R,ugm-3,5.16471,R,ugm-3,63.76262,R,ugm-3
10-01-2014,23:00,0.97134,R,ugm-3,3.11833,R,ugm-3,4.60769,R,ugm-3,66.50670,R,ugm-3
10-01-2014,24:00,0.80326,R,ugm-3,2.46426,R,ugm-3,3.69591,R,ugm-3,67.00563,R,ugm-3
11-01-2014,01:00,0.49144,R,ugm-3,1.13858,R,ugm-3,1.89210,R,ugm-3,72.97610,R,ugm-3
11-01-2014,02:00,0.83787,R,ugm-3,2.46569,R,ugm-3,3.75041,R,ugm-3,73.64133,R,ugm-3
11-01-2014,03:00,0.87186,R,ugm-3,3.83265,R,ugm-3,5.16949,R,ugm-3,70.24864,R,ugm-3
11-01-2014,04:00,0.77114,R,ugm-3,2.31460,R,ugm-3,3.49701,R,ugm-3,70.89724,R,ugm-3
11-01-2014,05:00,0.60338,R,ugm-3,2.26775,R,ugm-3,3.19292,R,ugm-3,68.05337,R,ugm-3
11-01-2014,06:00,0.46930,R,ugm-3,2.77743,R,ugm-3,3.49701,R,ugm-3,66.10756,R,ugm-3
11-01-2014,07:00,0.53634,R,ugm-3,3.63758,R,ugm-3,4.45995,R,ugm-3,65.30928,R,ugm-3
11-01-2014,08:00,0.53634,R,ugm-3,4.24575,R,ugm-3,5.06813,R,ugm-3,63.91229,R,ugm-3
11-01-2014,09:00,1.24044,R,ugm-3,7.01792,R,ugm-3,8.91990,R,ugm-3,61.46756,R,ugm-3
11-01-2014,10:00,2.04526,R,ugm-3,8.77407,R,ugm-3,11.91009,R,ugm-3,57.92519,R,ugm-3
11-01-2014,11:00,3.92214,R,ugm-3,12.83957,R,ugm-3,18.85343,R,ugm-3,54.48261,R,ugm-3
11-01-2014,12:00,11.30802,R,ugm-3,31.85588,R,ugm-3,49.19460,R,ugm-3,45.10282,R,ugm-3
11-01-2014,13:00,3.11700,R,ugm-3,8.90460,R,ugm-3,13.68394,R,ugm-3,63.81251,R,ugm-3
11-01-2014,14:00,1.10636,R,ugm-3,2.35811,R,ugm-3,4.05450,R,ugm-3,71.34628,R,ugm-3
11-01-2014,15:00,1.47493,R,ugm-3,5.64474,R,ugm-3,7.90628,R,ugm-3,68.05337,R,ugm-3
11-01-2014,16:00,2.41353,R,ugm-3,15.05138,R,ugm-3,18.75206,R,ugm-3,53.43487,R,ugm-3
11-01-2014,17:00,1.77709,R,ugm-3,15.21633,R,ugm-3,17.94116,R,ugm-3,46.69938,R,ugm-3
11-01-2014,18:00,0.46899,R,ugm-3,5.46401,R,ugm-3,6.18311,R,ugm-3,62.06627,R,ugm-3
11-01-2014,19:00,0.83819,R,ugm-3,11.53716,R,ugm-3,12.82236,R,ugm-3,54.33293,R,ugm-3
11-01-2014,20:00,1.10604,R,ugm-3,26.17878,R,ugm-3,27.87469,R,ugm-3,32.48002,R,ugm-3
11-01-2014,21:00,0.97196,R,ugm-3,23.34350,R,ugm-3,24.83381,R,ugm-3,30.68389,R,ugm-3
11-01-2014,22:00,0.93828,R,ugm-3,21.92538,R,ugm-3,23.36406,R,ugm-3,30.33464,R,ugm-3
11-01-2014,23:00,0.83850,R,ugm-3,18.73342,R,ugm-3,20.01909,R,ugm-3,35.02454,R,ugm-3
11-01-2014,24:00,0.97258,R,ugm-3,12.14198,R,ugm-3,13.63326,R,ugm-3,39.11572,R,ugm-3
12-01-2014,01:00,0.93922,R,ugm-3,12.48034,R,ugm-3,13.92045,R,ugm-3,41.31099,R,ugm-3
12-01-2014,02:00,1.00657,R,ugm-3,10.92420,R,ugm-3,12.46759,R,ugm-3,38.18439,R,ugm-3
12-01-2014,03:00,0.87280,R,ugm-3,10.47046,R,ugm-3,11.80873,R,ugm-3,41.31099,R,ugm-3
12-01-2014,04:00,1.10698,R,ugm-3,14.06453,R,ugm-3,15.76187,R,ugm-3,40.01379,R,ugm-3
12-01-2014,05:00,0.87218,R,ugm-3,20.40494,R,ugm-3,21.74226,R,ugm-3,33.82712,R,ugm-3
12-01-2014,06:00,1.04025,R,ugm-3,17.96794,R,ugm-3,19.56296,R,ugm-3,38.26755,R,ugm-3
12-01-2014,07:00,1.00657,R,ugm-3,13.66099,R,ugm-3,15.20438,R,ugm-3,48.64519,R,ugm-3
12-01-2014,08:00,0.93953,R,ugm-3,11.33108,R,ugm-3,12.77168,R,ugm-3,51.63874,R,ugm-3
12-01-2014,09:00,1.00657,R,ugm-3,7.88333,R,ugm-3,9.42671,R,ugm-3,53.23530,R,ugm-3
12-01-2014,10:00,0.93953,R,ugm-3,5.80683,R,ugm-3,7.24742,R,ugm-3,56.27874,R,ugm-3
12-01-2014,11:00,1.20801,R,ugm-3,4.88835,R,ugm-3,6.74061,R,ugm-3,54.63229,R,ugm-3
12-01-2014,12:00,0.87249,R,ugm-3,3.62897,R,ugm-3,4.96676,R,ugm-3,54.23315,R,ugm-3
12-01-2014,13:00,1.37577,R,ugm-3,4.12431,R,ugm-3,6.23379,R,ugm-3,53.18541,R,ugm-3
12-01-2014,14:00,1.61058,R,ugm-3,5.53812,R,ugm-3,8.00764,R,ugm-3,52.93594,R,ugm-3
12-01-2014,15:00,0.90585,R,ugm-3,6.01051,R,ugm-3,7.39946,R,ugm-3,51.43917,R,ugm-3
12-01-2014,16:00,0.93922,R,ugm-3,3.93210,R,ugm-3,5.37221,R,ugm-3,52.13766,R,ugm-3
12-01-2014,17:00,0.97289,R,ugm-3,4.08319,R,ugm-3,5.57494,R,ugm-3,51.48906,R,ugm-3
12-01-2014,18:00,1.00688,R,ugm-3,4.08175,R,ugm-3,5.62562,R,ugm-3,49.19401,R,ugm-3
12-01-2014,19:00,0.97321,R,ugm-3,5.04565,R,ugm-3,6.53788,R,ugm-3,46.49981,R,ugm-3
12-01-2014,20:00,1.04025,R,ugm-3,4.28400,R,ugm-3,5.87903,R,ugm-3,48.54540,R,ugm-3
12-01-2014,21:00,0.77146,R,ugm-3,2.06072,R,ugm-3,3.24360,R,ugm-3,59.42197,R,ugm-3
12-01-2014,22:00,0.80544,R,ugm-3,2.51542,R,ugm-3,3.75041,R,ugm-3,74.83875,R,ugm-3
12-01-2014,23:00,0.46961,R,ugm-3,1.40856,R,ugm-3,2.12861,R,ugm-3,75.03832,R,ugm-3
12-01-2014,24:00,0.57033,R,ugm-3,0.95003,R,ugm-3,1.82453,R,ugm-3,73.29208,R,ugm-3